map of SFA home
SFA - Airport
Location
City:  Sfax, Tunisia
Name:Thyna International Airport
ICAO:DTTX
IATA:SFA

Details
Type:Airport (Aerodrome, Airfield)
Use:Public/Civil, International (customs port of entry)
Latitude:3443'14"N (34.720556)
Longitude:1041'19"E (10.688611)
Elevation:85 ft (26 m)
Variation:2.27E (WMM2015 magnetic declination)
0.09 annual change
Runways:1
Longest:8858 × 148 ft (2700 × 45 m), paved

Time
Time Zone:UTC+1 (DST+2)

Weather
METAR:DTTX 090900Z 36010KT 6000 SCT016TCU SCT030 17/15 Q1030 NOSIG

Related Locations
Nearby:
Farthest:CHT: 11699 mi / 18828 km
Waitangi [Tuuta], CIT, NZ

Find:

   beyond  
but within

Other Information
Maps:
NOTAMs:
Links:
Sources:

  
flag of Tunisia   

Sectional Chart

Flight Planning
at skyvector.com

Satellite Image

Google Maps Satellite view

 

Copyright © 2004-2016 Karl L. Swartz. All rights reserved.
The Great Circle Mapper name and logo are trademarks of the Great Circle Mapper.
All other trademarks mentioned herein belong to their respective owners.
Please see credits for attibutions and further copyright information.

  Follow gcmap on Facebook Follow gcmap on Twitter Follow gcmap on Google+ GCmap on LinkedIn

hCard Microformat

Geo Microformat